Aérodrome :
LOGIN :

S'inscrire | Disclaimer

   EN    FR    IT 

 










Légende :    VFR   VFR Marginal   IFR   IFR Intensif   IFR Très Intensif
Visi : 
Plafond : 
>= 8 km
>= 3000ft
5 à 8 km
1000 à 3000 ft
1500m à 5 km
500 à 1000 ft
800 à 1500m
200 à 500 ft
< 800m
< 200 ft
Symboles :   Orages  Brouillard  Fortes neiges  Fortes précipitations  Vent > 20 kt
SIGMETs :   Divers  Orages  Givrage  Turbulence  Onde Orograph.  Cendres Volcan.







- Altitude de l'aérodrome : 40 ft
- Code IATA : RMI


LIPR - Federico Fellini Int. Rimini

DERNIER METAR :
  • 221445Z 04004KT CAVOK 24/16 Q1016

METARs EXPIRÉS :
  • 221415Z 06004KT CAVOK 24/16 Q1017
  • 221345Z 06004KT CAVOK 24/16 Q1017
  • 221315Z 06004KT CAVOK 24/16 Q1017
  • 221245Z 05005KT CAVOK 24/16 Q1018
  • 221215Z 05005KT CAVOK 24/16 Q1018

TAF TAF LIPR
Valide du 22 à 15h jusqu'au 23 à 00h UTC


221400Z 2215/2224 06010KT CAVOK
BECMG 2218/2220 15005KT
Pas de NOTAMs connus pour ce terrain.



MET'MAP, la Météo Aéronautique d'un coup d'oeil ! - Copyright ORBIFLY Décembre 2007 - Disclaimer

ORBIFLY MET'MAP TEAM :

Programmation & Développement : Alexandra Zaïnal
Conception & Développement : Baudouin d'Aumeries
Co-Programmation & Développement : Marc-Olivier Méhu
Soutien technique & logistique : Manuel Goepfert

Contact : metmap@orbifly.com




SOURCES & CREDITS :

   NOAA